Lapse_Rate
5.5 5.6 5.5 5.6 5.3 5.3 5.6 5.4 5.7 6.0 6.2 6.2 6.7 6.7 7.0 6.8 7.5 6.0 5.2 6.2 6.6 6.6 7.1 6.1 5.8 5.2 4.2 3.6 2.6 3.7 2.5 5.5 5.6 4.0 4.9 5.3 5.7 4.7 5.4 4.3 4.3 3.6 0.9
5.5 5.7 5.4 5.1 5.2 5.1 5.3 5.3 6.0 5.7 6.1 6.2 6.5 7.1 7.1 6.9 6.4 6.0 6.1 6.2 6.6 6.4 7.3 6.1 5.5 5.6 4.6 3.6 1.4 1.3 0.7 4.9 5.9 5.1 3.9 5.1 4.4 4.9 4.5 3.4 4.3 4.3 4.3
5.8 5.6 5.1 4.8 4.8 4.4 4.9 5.4 6.6 6.2 6.1 6.2 6.7 7.2 7.0 7.1 6.8 6.0 6.4 6.4 6.5 7.1 6.8 6.6 6.0 5.3 5.0 3.0 2.1 1.6 0.6 1.0 5.6 5.9 5.6 5.2 5.5 4.6 4.9 4.5 4.2 4.1 4.7
5.9 5.5 4.8 4.6 4.6 4.3 5.1 8.2 8.2 7.9 6.5 6.5 6.8 7.0 6.7 6.4 6.8 6.3 6.6 6.8 7.0 6.6 7.0 6.4 6.1 5.7 5.2 3.8 2.1 0.6 1.0 -0.6 3.6 5.7 5.5 5.1 5.1 5.4 4.8 5.6 5.5 4.7 4.5
6.0 5.6 5.1 4.9 4.9 4.7 7.7 8.6 8.1 7.1 6.7 6.7 6.7 7.1 6.5 7.4 7.5 6.6 6.6 7.3 6.6 6.1 6.5 6.3 5.8 5.7 4.8 4.1 2.8 1.1 0.3 -0.2 0.4 5.8 5.3 4.7 5.2 5.5 6.0 5.7 5.3 5.3 5.2
6.0 5.7 5.6 5.3 5.2 5.2 8.0 8.5 7.4 6.7 6.5 6.2 6.4 7.0 6.9 7.2 7.3 7.0 6.9 7.2 6.3 6.5 6.0 6.1 5.6 5.5 4.3 3.6 2.8 1.7 0.1 -0.3 1.0 1.6 6.3 6.0 6.4 4.6 5.3 6.1 5.4 4.6 5.1
6.2 6.0 5.8 5.4 5.3 5.4 8.6 8.2 6.9 6.2 6.1 6.1 6.5 6.8 6.9 6.6 7.1 7.1 6.3 6.0 6.4 6.4 6.1 6.2 5.5 5.4 4.9 4.0 2.9 1.8 1.2 0.9 -2.0 -0.4 0.8 5.8 5.7 5.3 5.3 4.8 5.8 6.4 6.0
6.5 6.0 5.7 5.5 5.3 5.6 7.3 8.0 6.9 6.8 6.3 6.9 6.5 6.4 6.5 7.3 6.8 6.8 6.4 6.2 6.0 6.3 6.5 6.1 6.2 5.4 5.4 4.6 3.9 2.8 2.1 1.9 0.4 -0.4 0.2 0.3 1.9 3.1 5.9 5.8 6.2 5.0 4.9
6.6 5.9 5.7 5.4 5.2 5.3 6.7 7.6 7.7 6.7 5.7 6.3 7.1 6.2 5.6 5.8 6.6 6.8 6.5 6.3 6.1 6.6 6.4 6.1 6.3 5.8 5.6 4.9 4.1 3.5 2.6 1.8 1.3 -0.3 -1.0 -1.6 -2.3 -2.8 -0.7 4.9 5.2 5.1 3.1
6.5 5.8 5.7 5.2 5.1 5.3 6.5 7.0 7.0 5.9 6.0 5.6 5.8 5.6 6.2 5.0 6.2 6.9 6.7 6.5 6.4 6.2 6.2 6.3 5.8 5.8 5.5 5.0 4.2 4.2 3.7 2.6 0.8 0.3 -1.0 -1.3 -0.7 -0.3 -1.8 1.3 4.0 5.8 3.6
6.4 5.9 5.6 5.0 5.3 5.1 5.7 5.7 5.8 5.6 5.1 4.3 5.1 5.1 4.9 5.7 6.4 6.6 6.8 6.2 6.4 6.4 6.3 6.1 5.8 5.7 6.0 5.5 4.6 4.0 3.9 3.2 2.1 1.3 0.0 -1.1 -2.1 -2.2 -2.1 -1.9 -0.7 1.5 4.4
5.7 5.8 5.1 4.6 5.0 5.6 8.4 6.0 5.4 5.3 5.7 5.6 5.5 5.0 5.2 5.3 6.9 6.4 6.7 6.8 6.6 6.0 6.3 6.0 5.7 6.4 6.2 5.7 5.2 4.6 3.6 3.3 3.4 3.0 2.0 0.5 -0.6 -1.3 -2.3 -3.1 -2.1 -2.5 -1.1
4.8 4.8 4.2 4.6 4.4 5.0 7.4 7.8 5.5 5.5 6.4 7.2 6.0 5.0 5.6 6.4 6.3 6.7 6.6 6.3 6.2 5.5 6.1 6.5 6.3 5.8 5.8 5.0 5.5 4.9 4.1 3.7 3.8 3.6 3.8 3.3 2.2 0.7 -1.3 -1.9 -2.3 -2.3 -2.7
3.7 3.8 4.4 4.6 4.8 4.9 5.3 6.4 5.9 6.3 6.9 6.9 6.3 5.4 5.9 7.1 7.0 6.2 6.5 5.5 5.8 5.3 5.4 5.4 5.4 5.0 4.9 4.8 4.5 5.1 4.7 4.4 4.5 4.6 4.6 4.0 3.3 2.6 1.6 0.3 -1.3 -1.4 -1.9
3.0 3.5 3.9 4.8 5.0 4.9 5.4 5.5 6.0 6.7 7.4 6.8 6.7 6.0 6.3 7.1 7.7 6.9 6.9 6.2 5.7 5.2 4.7 4.5 4.1 4.3 4.5 4.2 4.2 4.7 4.5 4.1 3.7 4.1 4.2 4.2 4.2 3.9 3.5 2.6 1.4 0.0 -0.6
3.1 3.4 3.8 4.3 4.3 4.8 5.0 5.0 6.5 7.4 7.9 7.9 8.3 7.0 7.0 8.4 7.1 6.0 6.0 5.9 5.9 5.1 4.0 4.7 4.7 4.9 5.3 5.6 4.7 4.6 4.5 4.2 4.1 4.2 4.5 4.4 4.4 4.8 4.5 4.0 3.8 3.0 2.7
3.0 4.0 3.7 4.3 4.4 5.1 4.9 5.3 3.7 5.3 7.0 7.3 7.6 7.8 8.1 8.7 7.2 5.2 5.0 4.9 4.8 4.3 3.6 5.0 4.8 5.0 5.0 5.5 4.9 4.8 4.5 4.2 4.2 3.8 4.3 4.3 4.3 4.8 5.1 4.8 4.5 4.4 4.3
3.2 3.4 3.5 3.2 2.6 4.0 3.1 3.6 4.3 3.2 1.9 3.1 6.0 7.2 7.3 7.5 6.4 5.0 3.8 3.1 1.9 3.4 4.5 5.7 4.9 4.7 4.9 4.6 4.6 4.0 4.1 3.8 3.6 3.6 3.7 4.0 3.9 4.6 5.5 5.6 5.3 4.9 4.7
2.4 1.7 2.6 2.1 2.6 3.0 3.4 3.7 3.2 3.4 3.0 3.1 3.5 5.0 5.9 6.3 5.3 4.6 3.3 2.1 2.7 3.4 4.1 4.4 4.6 4.0 4.0 3.7 3.9 3.4 3.6 3.3 3.3 3.1 3.3 3.4 3.6 4.1 5.0 5.4 5.7 5.4 4.9
1.9 2.2 2.2 2.6 2.2 2.4 2.8 2.9 3.2 3.4 3.8 4.0 5.1 4.7 4.6 4.2 2.7 3.0 2.9 1.9 2.6 3.2 3.7 3.9 4.2 3.7 3.3 3.1 3.1 2.3 2.6 2.3 2.1 2.5 2.6 2.9 3.2 3.8 4.8 5.1 5.2 5.5 5.9
0.4 1.3 2.9 2.7 2.4 2.3 2.2 2.4 2.8 2.7 2.5 3.3 3.3 3.9 3.6 3.9 3.5 3.7 3.0 2.3 2.6 3.0 3.4 3.5 3.9 3.3 3.1 3.1 2.3 1.4 1.8 1.3 1.5 1.8 2.2 2.6 2.8 3.5 4.6 5.0 4.9 5.0 5.3
1.3 2.1 2.8 2.6 2.6 2.1 2.2 2.6 2.1 2.4 2.7 2.4 2.0 3.3 1.2 2.5 2.8 3.0 2.3 1.3 1.3 2.6 2.8 2.9 3.2 3.0 2.8 2.9 1.8 0.6 0.7 0.3 0.6 0.9 1.3 1.9 2.7 3.7 4.4 4.6 4.6 4.9 5.1
2.4 2.7 2.8 2.4 2.6 1.8 2.1 1.8 1.7 1.6 1.5 1.1 1.4 1.4 0.9 0.5 1.0 1.9 1.2 -0.1 1.6 1.5 1.6 1.9 2.3 1.8 1.5 1.5 1.1 0.8 0.8 0.3 0.7 0.9 0.8 1.2 2.3 3.2 4.0 4.4 4.6 4.7 4.9
2.5 2.7 2.8 1.7 1.5 1.2 0.3 -0.4 0.9 1.0 1.4 -0.3 -2.1 0.0 -0.8 -1.6 -3.0 -2.3 -1.1 0.4 0.8 0.9 1.3 1.1 1.6 1.2 0.6 0.4 0.1 -0.2 0.1 -0.4 -0.1 0.4 0.5 1.3 2.4 2.3 3.2 3.7 4.3 4.5 4.8
2.2 1.3 0.7 1.0 0.0 -1.8 -2.2 -0.4 -1.3 -2.4 -1.7 -2.3 -2.5 -2.5 -0.3 -1.6 -0.3 -2.8 -0.8 0.1 0.2 0.4 0.7 0.9 0.7 0.3 -0.3 -0.4 -0.5 -0.9 -0.7 -0.9 -0.6 -0.3 0.3 1.4 1.4 1.5 2.2 3.1 3.4 4.1 4.6
2.4 2.5 1.5 0.6 -1.2 -2.6 -2.8 -3.1 -3.3 -3.2 -2.8 -2.5 -3.3 -4.3 -3.3 -1.8 -1.1 -2.7 -0.6 -0.1 -0.4 -0.0 0.0 0.2 0.1 -0.5 -1.0 -1.1 -1.1 -1.0 -0.4 -0.7 -0.9 -0.2 0.0 0.6 0.6 0.7 1.1 1.9 2.9 3.3 3.7
Wind_Speed
4 5 7 8 6 6 6 6 8 11 12 10 11 10 10 9 10 11 12 14 12 11 10 11 11 11 7 7 7 5 9 6 7 2 1 8 14 17 14 24 26 25 24
5 6 6 6 6 5 7 7 12 7 14 13 14 11 10 10 10 11 15 13 12 12 12 11 12 9 10 8 7 9 8 8 9 9 2 3 2 10 12 15 13 24 23
5 6 6 6 6 6 7 7 11 7 11 14 12 12 12 11 12 12 14 12 12 11 12 11 11 12 10 8 8 8 7 8 9 8 5 1 3 5 8 7 12 12 20
5 6 6 5 5 6 6 8 9 13 10 11 10 12 13 10 13 13 14 13 11 11 12 10 11 10 12 11 10 10 9 8 8 9 6 4 4 5 5 8 9 8 10
5 5 5 4 5 6 9 10 10 10 9 11 10 11 11 11 11 15 14 12 11 12 12 11 10 14 19 14 9 10 9 6 7 8 6 4 5 4 6 3 6 9 10
6 5 4 5 6 7 9 10 10 9 9 9 10 11 10 9 24 24 20 11 10 11 11 11 11 14 15 18 18 16 11 7 8 5 8 10 11 7 5 6 5 4 5
6 5 5 5 5 6 9 10 9 8 7 7 10 11 11 11 26 27 24 10 9 10 10 10 11 10 13 14 16 16 12 9 6 6 9 7 9 9 7 6 5 6 5
6 5 4 5 5 6 7 9 8 7 8 8 9 11 11 10 25 27 23 13 10 11 10 10 11 13 13 15 12 12 11 10 10 7 7 8 8 4 11 8 7 3 2
6 4 4 5 5 6 8 9 9 9 9 9 10 11 12 11 25 25 19 11 10 11 10 11 11 13 20 22 11 11 11 9 9 11 10 7 9 8 7 7 6 3 3
5 4 4 5 5 6 8 9 7 6 8 8 9 10 15 11 24 26 22 9 12 9 11 13 16 18 21 23 12 11 12 11 11 11 10 10 10 8 4 2 3 7 3
5 5 5 6 5 6 6 5 6 7 7 7 8 9 10 12 17 27 26 12 10 8 9 10 10 22 21 24 20 14 14 12 13 10 8 7 7 8 7 7 7 3 2
6 5 6 6 5 5 9 5 6 7 7 7 9 9 9 9 21 24 25 23 21 9 9 9 11 22 23 23 19 23 19 12 9 8 8 9 8 8 8 6 5 5 4
5 5 4 5 5 6 7 6 5 6 5 8 9 9 9 9 9 23 23 23 20 10 9 14 20 21 20 16 23 25 17 11 11 11 10 9 8 8 8 5 4 4 3
5 5 3 4 6 5 4 5 4 6 5 6 8 8 9 8 10 10 9 8 16 12 11 9 11 13 15 13 13 14 11 11 10 9 8 8 8 8 8 7 3 4 1
4 3 3 3 4 5 5 4 4 5 7 4 7 6 8 9 11 19 15 10 10 11 8 8 10 11 12 12 11 12 11 11 11 10 10 10 9 9 8 8 7 5 5
3 3 3 3 3 3 3 4 11 12 17 12 16 10 7 16 23 25 24 22 24 19 9 10 10 10 11 11 11 11 11 12 11 10 10 10 10 9 9 7 6 5 5
2 3 3 3 3 3 2 1 2 5 11 12 15 17 19 19 22 25 24 21 22 16 10 9 10 10 10 10 11 11 11 10 11 10 10 10 9 9 9 7 7 6 5
2 3 3 3 2 3 2 2 1 2 2 4 9 15 17 19 21 24 25 15 9 12 9 9 9 9 10 10 10 10 10 11 11 10 10 10 10 9 9 8 7 7 6
2 2 3 2 2 2 2 3 2 2 2 2 3 7 11 17 17 20 21 8 8 9 9 9 9 9 9 9 9 9 10 10 10 10 10 10 10 9 9 9 7 8 7
3 4 3 2 2 3 3 3 3 3 3 3 4 5 5 7 7 8 8 7 7 7 8 9 9 9 9 9 9 9 9 10 10 10 9 9 9 9 9 9 8 8 7
1 1 2 2 3 2 2 2 2 2 2 3 2 5 7 6 6 7 7 7 7 8 8 8 8 8 9 9 9 9 9 9 9 9 9 9 9 9 9 8 8 8 7
2 2 2 2 2 2 2 2 3 3 3 3 2 4 6 5 5 6 6 6 6 10 13 11 7 10 12 9 10 9 9 9 10 10 10 10 9 9 9 9 8 8 8
4 3 3 1 2 3 3 2 2 2 2 3 3 3 2 3 3 5 5 5 10 12 13 13 12 12 15 14 15 14 8 8 12 14 9 9 9 9 9 9 9 9 8
4 4 4 3 2 2 2 2 2 3 3 2 3 2 2 2 2 3 4 10 11 13 15 14 12 14 15 14 15 15 16 17 18 17 17 8 9 10 9 9 9 11 8
4 4 4 3 3 3 2 2 2 2 2 2 2 2 2 2 2 3 9 11 11 11 12 14 13 15 16 16 18 20 23 22 20 20 17 14 10 11 9 8 10 9 10
5 5 4 3 3 3 3 2 1 1 1 1 2 2 2 2 3 6 10 11 10 11 13 13 15 19 19 15 19 22 25 25 22 23 18 14 8 8 8 9 12 8 11
Wind_Direction
347 326 344 359 9 21 10 346 338 335 343 340 340 334 344 344 6 350 346 348 335 326 328 335 327 326 311 310 321 284 302 182 209 209 351 234 212 202 197 200 201 201 202
347 358 3 13 16 11 355 339 335 337 347 344 342 338 344 343 5 349 348 345 329 327 337 338 337 335 330 328 334 306 296 260 206 218 202 279 296 219 201 195 198 203 204
350 16 18 21 12 354 343 333 331 350 350 346 346 346 347 353 360 352 351 334 329 332 339 334 335 337 335 337 327 306 313 317 216 224 211 156 221 307 222 199 197 204 207
351 23 33 24 4 351 333 350 351 358 351 347 350 350 353 355 2 354 355 335 337 344 336 338 336 335 341 334 328 319 318 314 284 201 205 199 213 246 273 218 207 197 201
356 37 38 17 353 340 3 353 358 354 345 346 350 356 352 358 1 356 351 343 343 341 336 347 335 336 337 332 322 316 303 307 303 218 197 196 216 217 234 239 232 199 206
357 48 42 14 1 354 2 359 358 352 346 346 352 353 357 357 357 356 356 344 342 342 337 342 340 341 334 330 329 315 300 292 285 300 217 207 215 204 209 230 238 169 191
2 55 37 9 360 346 3 2 354 350 346 350 359 0 354 360 358 357 354 348 347 338 339 344 344 344 344 340 338 340 338 304 275 297 303 215 207 203 201 220 228 236 221
7 64 25 3 358 348 360 4 358 356 356 359 357 359 355 355 359 356 355 1 349 346 349 348 345 342 348 352 344 347 356 355 349 336 296 301 324 300 207 215 220 189 260
12 73 20 0 358 359 357 3 7 3 360 1 358 358 356 351 3 0 0 359 354 357 353 356 354 350 351 356 1 2 351 350 334 322 300 306 287 270 267 197 199 166 260
13 81 26 7 8 5 12 3 6 350 352 349 357 352 352 348 0 6 6 1 3 355 0 6 360 1 1 4 6 6 7 348 346 343 9 12 358 355 351 287 317 206 180
32 78 37 9 11 13 11 354 353 349 333 337 353 347 346 353 4 7 5 3 5 2 1 3 3 5 9 12 10 11 3 349 356 4 7 3 5 12 7 5 335 345 314
66 60 40 9 3 360 11 355 340 344 346 346 359 355 353 353 5 7 8 5 4 1 1 358 355 2 13 15 16 15 8 7 12 12 12 9 6 359 346 344 338 323 294
67 59 40 2 356 353 357 5 344 345 350 14 8 357 353 352 6 8 10 6 6 5 359 2 5 4 9 11 13 16 12 11 13 13 8 3 356 338 337 347 325 351 330
55 56 35 13 358 348 351 350 346 3 10 25 11 2 350 355 6 5 7 5 3 3 3 3 5 9 13 12 11 14 13 10 12 8 1 359 353 359 1 353 336 354 60
59 35 4 5 4 352 348 345 353 353 25 28 16 356 353 8 8 8 11 12 12 359 1 12 16 16 16 12 11 10 9 9 9 3 2 4 3 360 357 356 1 2 31
51 352 350 356 339 338 340 335 351 16 18 48 23 19 7 14 14 12 13 16 18 12 17 23 16 13 13 12 8 5 6 5 4 2 1 3 1 357 355 0 360 6 15
35 340 339 343 341 324 313 339 338 351 14 18 17 14 14 18 19 18 13 15 15 19 24 24 16 11 8 8 7 5 2 359 356 4 360 359 359 353 352 359 354 3 7
349 324 326 326 333 330 337 313 358 34 348 332 3 15 17 27 25 25 16 12 14 20 16 13 14 7 5 1 6 0 359 357 358 358 359 355 358 351 349 354 355 354 349
287 302 325 352 357 15 23 28 43 22 359 331 333 5 12 24 28 29 22 21 15 13 8 6 14 5 2 356 5 357 359 356 353 353 356 353 350 348 347 348 351 349 346
295 304 9 84 27 37 27 28 24 23 22 10 27 9 3 19 19 26 20 13 13 7 5 359 10 4 0 355 4 355 355 359 357 352 350 349 344 343 344 344 346 348 346
250 333 132 83 62 47 35 25 18 33 17 17 360 19 21 33 21 31 17 10 5 5 1 355 7 3 359 357 2 357 355 353 351 347 343 343 340 338 340 339 340 344 345
176 146 122 116 95 60 16 39 47 38 24 26 346 16 29 37 32 31 19 1 349 358 359 354 6 4 2 357 1 351 351 350 344 342 338 337 338 337 340 341 342 347 348
147 137 126 119 102 86 54 32 53 39 29 23 12 20 9 31 26 26 11 347 355 352 353 354 3 1 1 359 1 353 348 342 336 334 333 331 333 344 340 341 342 346 348
156 154 145 140 100 89 73 54 49 50 45 38 17 12 18 6 13 0 349 352 351 348 351 352 0 1 356 355 356 352 347 338 336 336 335 332 339 341 340 340 344 342 342
159 148 147 154 145 135 107 69 60 30 41 60 14 16 358 355 1 351 351 354 355 349 352 351 356 357 356 351 350 348 351 345 344 345 344 345 341 342 345 341 345 342 346
158 161 159 150 149 147 140 142 158 163 90 359 28 43 25 356 350 354 350 357 358 354 351 351 352 356 355 351 349 350 359 354 350 351 352 348 347 345 346 343 346 350 345